#timestamp,LO_Frequency,Hit,StdDev 
1522011615.2,286047001.4,N
1522011635.1,286047004.3,N
1522011636.0,286047004.3,N
1522011655.8,286047000.1,N
1522011675.7,286047000.1,N
1522011695.5,286047005.2,N
1522011715.3,286047021.3,Y
1522011735.2,286047019.1,P
1522011755.0,286047018.1,N
1522011755.9,286047018.1,N
1522011775.7,286047015.4,N
1522011795.6,286047011.2,N
1522011815.4,286047009.8,N
1522011835.3,286047008.1,N
1522011855.1,286047008.7,N
1522011856.0,286047008.7,N
1522011875.8,286047007.6,N
1522011895.7,286047003.1,N
1522011915.5,286047001.9,N
1522011935.4,286047001.9,N
1522011955.2,286047002.0,N
1522011975.0,286047000.6,N
1522011975.9,286047000.6,N
1522011995.8,286046999.8,N
1522012015.6,286047000.1,N
1522012035.4,286047002.6,N
1522012055.3,286046998.1,N
1522012075.1,286046998.4,N
1522012095.9,286046998.6,N
1522012115.7,286047000.8,N
1522012135.5,286046999.9,N
1522012155.4,286047002.8,N
1522012175.2,286047000.1,N
1522012195.0,286047000.0,N
1522012196.0,286047000.0,N
1522012215.8,286047000.8,N
1522012235.6,286047000.3,N
1522012255.5,286047000.3,N
1522012275.3,286046998.7,N
1522012295.1,286046998.3,N
1522012315.9,286047000.6,N
1522012335.7,286047000.9,N
1522012355.6,286046998.1,N
1522012375.4,286047001.2,N
1522012395.2,286046999.9,N
1522012415.1,286047000.8,N
1522012416.0,286047000.8,N
1522012435.8,286047004.1,Y
1522012455.7,286047010.7,P
1522012475.5,286047014.1,N
1522012495.3,286047012.7,N
1522012515.2,286047010.9,N
1522012535.0,286047009.8,N
1522012535.9,286047009.8,N
1522012555.8,286047008.2,N
1522012575.6,286047004.5,N
1522012595.4,286047005.6,N
1522012615.3,286047003.3,N
1522012635.1,286047002.7,N
1522012655.8,286047000.7,N
1522012675.7,286047001.2,N
1522012695.5,286046998.4,N
1522012715.4,286046999.5,N
1522012735.2,286046996.9,N
1522012755.0,286046995.1,N
1522012755.9,286046995.1,N
1522012775.8,286046995.3,N
1522012795.6,286046997.2,N
1522012815.5,286046997.3,N
1522012835.3,286046998.0,N
1522012855.1,286046999.5,N
1522012875.9,286046999.3,N
1522012895.7,286046999.5,N
1522012915.6,286046997.8,N
1522012935.4,286046995.1,N
1522012955.2,286046995.0,N
1522012975.1,286046999.6,N
1522012976.0,286046999.6,N
1522012995.8,286046999.5,N
1522013015.6,286046997.1,N
1522013035.5,286046997.9,N
1522013055.3,286046998.0,N
1522013075.2,286046997.7,N
1522013095.9,286046998.0,N
1522013115.7,286046997.9,N
1522013135.6,286046996.2,N
1522013155.4,286046997.6,N
1522013175.2,286046995.4,N
1522013195.1,286046995.6,N
1522013196.0,286046995.6,N
1522013215.8,286046995.0,N
1522013235.7,286046997.6,N
1522013255.5,286046995.1,Y
1522013275.3,286047000.2,P
1522013295.2,286047002.6,N
1522013315.0,286047002.8,N
1522013315.9,286047002.8,N
1522013335.8,286046999.7,N
1522013355.6,286047001.6,N
1522013375.4,286047004.0,N
1522013395.3,286047007.6,Y
1522013415.1,286047001.3,P
1522013435.9,286047001.8,P
1522013455.7,286047001.6,P
1522013475.5,286047002.7,Y
1522013495.4,286047000.7,P
1522013515.2,286047001.0,N
1522013535.1,286047001.1,P
1522013536.0,286047001.1,Y
1522013555.8,286046998.9,P
1522013575.6,286046998.5,N
1522013595.5,286046996.8,N
1522013615.3,286046998.9,N
1522013635.1,286046996.6,N
1522013655.9,286046996.9,N
1522013675.7,286046997.0,N
1522013695.6,286046997.4,N
1522013715.4,286046996.6,N
1522013735.2,286046998.9,N
1522013755.1,286046996.6,N
1522013756.0,286046996.6,N
1522013775.8,286046997.8,N
1522013795.7,286046996.9,N
1522013815.5,286046997.4,N
1522013835.3,286046999.6,N
1522013855.2,286046998.7,N
1522013875.9,286047001.2,N
1522013895.7,286046998.7,N
1522013915.6,286046998.4,N
1522013935.4,286047000.9,N
1522013955.2,286046998.4,N
1522013975.1,286046998.2,N
1522013976.0,286046998.2,N
1522013995.8,286046999.0,N
1522014015.7,286046998.3,N
1522014035.5,286046998.9,N
1522014055.3,286046999.4,N
1522014075.2,286046999.1,N
1522014095.0,286047000.6,N
1522014095.9,286047000.6,N
1522014115.8,286046999.5,N
1522014135.6,286046998.2,N
1522014155.4,286047000.9,N
1522014175.3,286046999.0,N
1522014195.1,286046997.0,N
1522014215.9,286046999.6,N
1522014235.7,286046999.3,N
1522014255.5,286046998.1,N
1522014275.4,286047000.7,N
1522014295.2,286046998.2,N
1522014315.0,286046998.6,N
1522014315.9,286046998.6,N
1522014335.8,286047002.3,N
1522014355.6,286047000.5,N
1522014375.5,286046999.9,N
1522014395.3,286047000.9,N
1522014415.1,286047000.6,N
1522014435.9,286047002.6,N
1522014455.7,286047002.0,N
1522014475.5,286047002.1,N
1522014495.4,286047001.9,N
1522014515.2,286047001.6,N
1522014535.1,286047002.6,N
1522014536.0,286047002.6,N
1522014555.8,286046999.9,N
1522014575.6,286047001.1,N
1522014595.5,286047000.3,N
1522014615.3,286047002.0,N
1522014635.2,286047003.7,N
1522014655.9,286047006.0,Y
1522014675.7,286047002.6,P
1522014695.6,286047000.2,N
1522014715.4,286047000.3,N
1522014735.2,286046999.9,N
1522014755.1,286047000.9,N
1522014756.0,286047000.9,N
1522014775.8,286047000.6,N
1522014795.7,286047002.3,N
1522014815.5,286047001.6,N
1522014835.3,286047002.5,N
1522014855.2,286046999.9,N
1522014875.0,286047002.1,N
1522014875.9,286047002.1,N
1522014895.7,286047002.2,N
1522014915.6,286046999.7,N
1522014935.4,286047001.7,N
1522014955.3,286047002.2,N
1522014975.1,286047003.0,Y
1522014995.8,286047004.0,P
1522015015.7,286047002.1,N
1522015035.5,286047000.6,N
1522015055.4,286046999.9,N
1522015075.2,286046999.9,N
1522015095.0,286047000.3,N
1522015095.9,286047000.3,N
1522015115.8,286046999.7,N
1522015135.6,286047000.7,N
1522015155.5,286047000.7,N
1522015175.3,286047000.3,N
1522015195.1,286046999.7,N
